[[{"header":{"parameterUnit":"m.s-1","parameterCategory":1,"la1":30.2991,"la2":30.254,"lo1":-89.0895,"lo2":-89.0444,"dy":0.0017,"dx":0.0017,"nx":28,"ny":28,"refTime":"2023-08-15T21:00:00:Z","depth":0,"parameterNumber":2,"parameterNumberName":"U-component_of_WINDS"},"data":[0,0,0,0,0,0,0,0,0,0,0,0,0,0,0,0,0,0,0,0,0,0,0,0,0,0,0,0,0,0,0,0,0,0,0,0,0,0,0,0,0,0,0,0,0,0,0,0,0,0,0,0,0,0,0,0,0,0,1.7745,1.7745,0,1.7766,1.7766,1.7767,1.7708,1.7706,1.7704,1.7703,1.7723,1.7725,1.7727,0,0,0,0,0,0,0,0,0,0,0,0,0,1.7651,1.7653,1.7745,1.7745,1.7746,1.7766,1.7766,1.7767,1.7708,1.7706,1.7704,1.7702,1.7722,1.7725,1.7728,0,0,0,0,0,0,0,0,0,0,0,0,0,1.7684,1.7654,1.7745,1.7719,1.7717,1.7766,1.7766,1.7767,1.7709,1.7706,1.7703,1.7701,1.7721,1.7725,1.7728,1.7803,0,0,1.7738,1.774,0,0,0,0,0,0,0,0,1.7682,1.7688,1.7723,1.7721,1.7719,1.7732,1.7741,1.7779,1.7709,1.7712,1.7703,1.7699,1.7728,1.7731,1.7741,1.7804,1.7805,1.7738,1.7741,1.7742,1.7743,0,0,0,0,0,0,0,1.768,1.7686,1.7753,1.7723,1.7721,1.7705,1.7707,1.7748,1.7735,1.7711,1.7707,1.7711,1.7726,1.7737,1.7741,1.7805,1.7738,1.7741,1.7743,1.7745,1.7928,1.793,0,0,0,0,0,0,1.7682,1.7685,1.7753,1.7754,1.7693,1.7709,1.7711,1.773,1.7734,1.7732,1.7713,1.7708,1.7733,1.7737,1.7741,1.7826,1.7742,1.7745,1.7747,1.7925,1.7928,1.7931,0,0,0,0,0,0,1.768,1.7688,1.7752,1.7718,1.7725,1.7714,1.7736,1.7732,1.7743,1.7735,1.7733,1.7727,1.7731,1.7736,1.7787,1.7826,1.7747,1.775,1.7922,1.7926,1.793,1.7999,0,0,0,0,0,0,1.7677,1.7688,1.7717,1.7719,1.7727,1.7799,1.7738,1.7734,1.7749,1.7743,1.7748,1.7746,1.7729,1.7783,1.7791,1.7829,1.7752,1.7918,1.7923,1.7929,1.7994,1.8006,1.8016,0,0,0,0,0,1.7674,1.7736,1.7719,1.7727,1.7764,1.7801,1.7805,1.7786,1.7753,1.7781,1.7776,1.7746,1.7822,1.7788,1.7797,1.7837,1.7915,1.7922,1.7928,1.7989,1.8003,1.8016,0,0,0,0,0,0,1.7739,1.7736,1.7717,1.7782,1.7792,1.7791,1.7826,1.7802,1.7822,1.7815,1.7789,1.7791,1.7846,1.7847,1.781,1.7909,1.7862,1.7871,1.7905,1.7919,1.793,1.7928,1.7755,0,0,0,0,0,1.7761,1.7792,1.7788,1.7845,1.7852,1.7838,1.7854,1.7838,1.7847,1.7851,1.785,1.786,1.7885,1.7903,1.7926,1.7994,1.7993,1.8026,1.8037,1.8046,1.8053,1.8086,1.81,1.7953,1.7952,1.7952,0,0,1.7806,1.7809,1.783,1.7858,1.7865,1.7896,1.7842,1.7879,1.7902,1.7857,1.7904,1.7903,1.7913,1.7972,1.7997,1.7974,1.8094,1.8055,1.8062,1.8064,1.8094,1.8108,1.812,1.7957,1.7956,1.7955,0,0,1.7904,1.7911,1.7957,1.7964,1.7974,1.7965,1.7976,1.7979,1.7976,1.8023,1.799,1.8016,1.8062,1.8069,1.8078,1.8178,1.8149,1.8186,1.8243,1.8276,1.8287,1.8297,1.833,1.8342,1.8193,1.8194,1.8194,0,1.7959,1.8006,1.7985,1.8022,1.8035,1.7996,1.8042,1.805,1.8067,1.8076,1.805,1.8104,1.8108,1.8167,1.8191,1.8201,1.8211,1.8184,1.8287,1.8297,1.8306,1.8337,1.835,1.8198,1.8197,1.8197,1.8196,0,1.8071,1.8104,1.8141,1.8157,1.8174,1.8216,1.82,1.8219,1.8202,1.8195,1.8242,1.8245,1.8267,1.828,1.8264,1.8336,1.8321,1.8292,1.8244,1.8325,1.8353,1.8365,1.8204,1.8202,1.8201,1.82,0,0,1.821,1.8213,1.8226,1.8232,1.824,1.8264,1.8304,1.8325,1.8341,1.8354,1.8385,1.8424,1.8396,1.8407,1.8391,1.842,1.8495,1.8387,1.8387,1.8404,1.8571,1.8591,1.8605,1.8477,1.848,1.8481,1.8569,0,1.8303,1.8371,1.8352,1.8419,1.8448,1.8411,1.8445,1.8452,1.8447,1.8469,1.8463,1.849,1.8453,1.8459,1.8486,1.848,1.8527,1.8474,1.8504,1.8505,1.85,1.862,1.8641,1.8724,1.858,1.8582,1.8584,0,1.8422,1.8438,1.8508,1.8508,1.8519,1.8551,1.8567,1.859,1.8597,1.8591,1.8603,1.858,1.8618,1.8572,1.8622,1.8586,1.8597,1.8596,1.8599,1.8598,1.8547,1.862,1.875,1.8762,1.8601,1.86,1.8599,0,1.8512,1.8552,1.8598,1.8605,1.8607,1.8629,1.8631,1.8635,1.8649,1.8664,1.8671,1.8691,1.8701,1.8716,1.8699,1.8668,1.875,1.8704,1.8744,1.8745,1.8761,1.876,1.8892,1.8774,1.8773,1.8773,1.8773,0,1.8617,1.866,1.8638,1.8666,1.8713,1.8691,1.8737,1.8735,1.8739,1.8765,1.8735,1.876,1.8737,1.876,1.8747,1.8788,1.8794,1.8788,1.8784,1.8789,1.879,1.8795,1.8787,1.8776,1.8776,1.8775,1.8775,0,1.8725,1.8712,1.8759,1.8757,1.8757,1.8791,1.8789,1.8814,1.8806,1.8839,1.8846,1.8833,1.8858,1.8843,1.8869,1.886,1.8913,1.8902,1.891,1.8906,1.8946,1.8941,1.9084,1.91,1.8974,1.8975,1.8976,0,1.8791,1.8823,1.8824,1.8839,1.8843,1.8868,1.8881,1.8861,1.8875,1.8885,1.8908,1.893,1.8947,1.8988,1.8981,1.8999,1.8987,1.9036,1.8989,1.8993,1.8984,1.8981,1.8983,1.9044,1.9045,1.9047,1.9048,0,1.891,1.8901,1.8921,1.8939,1.8955,1.8968,1.8978,1.8992,1.8971,1.8989,1.9013,1.9026,1.9052,1.9073,1.9089,1.909,1.9065,1.9063,1.9072,1.9077,1.9079,1.9075,1.8932,1.9059,1.9058,1.9057,1.9056,1.9056,1.8997,1.9022,1.9026,1.9049,1.9054,1.9064,1.9087,1.9081,1.9101,1.912,1.9107,1.9135,1.914,1.9158,1.9162,1.9184,1.9164,1.9179,1.9182,1.9185,1.9189,1.9078,1.9187,1.9187,1.9186,1.9186,1.9186,0,1.9111,1.9111,1.9132,1.9147,1.9164,1.914,1.9149,1.9165,1.9191,1.9197,1.9214,1.9241,1.9261,1.9256,1.9274,1.9292,1.928,1.9297,1.9294,1.9294,1.9208,1.9196,1.9305,1.9305,1.9305,1.9305,1.9305,1.9305,1.9172,1.9213,1.9205,1.9248,1.9248,1.9275,1.9282,1.9291,1.9295,1.9327,1.9344,1.934,1.9341,1.9358,1.9375,1.9373,1.938,1.94,1.9393,1.9312,1.93,1.9289,1.9278,1.9402,1.9403,1.9477,1.9478,1.9479]},{"header":{"parameterUnit":"m.s-1","parameterCategory":1,"la1":30.2991,"la2":30.254,"lo1":-89.0895,"lo2":-89.0444,"dy":0.0017,"dx":0.0017,"nx":28,"ny":28,"refTime":"2023-08-15T21:00:00:Z","depth":0,"parameterNumber":3,"parameterNumberName":"V-component_of_WINDS"},"data":[0,0,0,0,0,0,0,0,0,0,0,0,0,0,0,0,0,0,0,0,0,0,0,0,0,0,0,0,0,0,0,0,0,0,0,0,0,0,0,0,0,0,0,0,0,0,0,0,0,0,0,0,0,0,0,0,0,0,0.7359,0.7358,0,0.7264,0.7263,0.7262,0.7213,0.7213,0.7213,0.7213,0.711,0.7107,0.7105,0,0,0,0,0,0,0,0,0,0,0,0,0,0.7494,0.7492,0.7359,0.7358,0.7357,0.7264,0.7263,0.7261,0.7213,0.7213,0.7213,0.7213,0.7111,0.7108,0.7105,0,0,0,0,0,0,0,0,0,0,0,0,0,0.7421,0.7491,0.736,0.7322,0.7317,0.7264,0.7263,0.7261,0.7213,0.7213,0.7213,0.7213,0.7112,0.7108,0.7104,0.708,0,0,0.7092,0.709,0,0,0,0,0,0,0,0,0.7425,0.7416,0.7329,0.7324,0.7319,0.725,0.7273,0.72,0.7213,0.7252,0.7213,0.7213,0.7156,0.7149,0.7131,0.7075,0.7071,0.7091,0.7089,0.7087,0.7086,0,0,0,0,0,0,0,0.743,0.742,0.7321,0.7327,0.7322,0.7308,0.7297,0.7259,0.7206,0.7249,0.7245,0.7235,0.7154,0.7135,0.7128,0.7069,0.7091,0.7088,0.7085,0.7084,0.6987,0.6987,0,0,0,0,0,0,0.7442,0.7424,0.7324,0.7319,0.7373,0.7305,0.7294,0.7272,0.7206,0.7196,0.7235,0.7233,0.7142,0.7133,0.7124,0.709,0.7087,0.7083,0.7081,0.6987,0.6987,0.6986,0,0,0,0,0,0,0.7445,0.7434,0.7328,0.737,0.7356,0.7303,0.728,0.7271,0.7252,0.7196,0.7185,0.7226,0.7141,0.713,0.7091,0.7086,0.7082,0.7078,0.6987,0.6987,0.6987,0.7023,0,0,0,0,0,0,0.7449,0.7435,0.7427,0.7371,0.7354,0.7299,0.7279,0.7269,0.7245,0.7242,0.7184,0.7174,0.714,0.7098,0.7087,0.708,0.7075,0.6987,0.6987,0.6987,0.7022,0.7024,0.7026,0,0,0,0,0,0.7454,0.744,0.7427,0.7415,0.7343,0.7299,0.7289,0.7252,0.7245,0.7235,0.7199,0.7176,0.7089,0.7094,0.7082,0.7074,0.6987,0.6987,0.6987,0.7021,0.7024,0.7026,0,0,0,0,0,0,0.7496,0.7432,0.7417,0.7384,0.7347,0.7291,0.7277,0.7256,0.7219,0.7217,0.717,0.7158,0.7123,0.7094,0.7102,0.7046,0.7035,0.7033,0.7066,0.7068,0.707,0.7077,0.7071,0,0,0,0,0,0.7502,0.7473,0.7418,0.7395,0.7377,0.7331,0.731,0.7285,0.7244,0.7227,0.7188,0.7148,0.7111,0.7088,0.7051,0.7018,0.7004,0.7006,0.7008,0.701,0.7008,0.6987,0.6987,0.6985,0.6985,0.6985,0,0,0.7512,0.7474,0.7459,0.7402,0.7371,0.734,0.7318,0.7287,0.7263,0.7222,0.7183,0.7153,0.7105,0.7069,0.7051,0.7044,0.7005,0.701,0.7012,0.7008,0.6986,0.6986,0.6987,0.6985,0.6985,0.6985,0,0,0.7517,0.7486,0.7462,0.7431,0.7384,0.7353,0.7347,0.7293,0.7272,0.7233,0.7201,0.7171,0.711,0.7076,0.7051,0.7042,0.7019,0.7031,0.7041,0.702,0.7021,0.702,0.7016,0.7015,0.7029,0.7029,0.7029,0,0.7536,0.749,0.7452,0.7423,0.7398,0.7361,0.7336,0.7307,0.725,0.7233,0.7226,0.7147,0.7112,0.7067,0.7065,0.7046,0.7036,0.7037,0.7024,0.7023,0.7023,0.7017,0.7016,0.7031,0.7031,0.7031,0.703,0,0.7515,0.7484,0.747,0.7417,0.7391,0.7364,0.732,0.7297,0.7274,0.7243,0.7202,0.7159,0.7112,0.71,0.7076,0.705,0.7047,0.7033,0.7021,0.7025,0.7019,0.7017,0.7033,0.7033,0.7032,0.7032,0,0,0.7543,0.7469,0.7465,0.744,0.7385,0.7359,0.7329,0.7284,0.7265,0.7227,0.7199,0.7147,0.7134,0.7105,0.7077,0.706,0.7053,0.7047,0.7045,0.7049,0.702,0.7031,0.703,0.7038,0.7037,0.7037,0.7024,0,0.7538,0.7485,0.745,0.7409,0.7379,0.7343,0.7317,0.7279,0.7249,0.7217,0.7183,0.7147,0.7132,0.7114,0.7095,0.7058,0.7047,0.7059,0.701,0.7009,0.7023,0.7027,0.7038,0.7028,0.7022,0.7021,0.7021,0,0.7526,0.749,0.7447,0.7394,0.738,0.7357,0.7313,0.7284,0.724,0.7219,0.7187,0.7159,0.7123,0.7115,0.7065,0.7074,0.7052,0.7031,0.7029,0.7022,0.7015,0.7019,0.7024,0.7022,0.7017,0.7018,0.7018,0,0.7549,0.7489,0.7456,0.7435,0.7373,0.7358,0.7331,0.7287,0.7262,0.7223,0.7206,0.7163,0.7139,0.7105,0.7065,0.7063,0.7018,0.7007,0.6998,0.6999,0.699,0.6991,0.699,0.6977,0.6977,0.6977,0.6977,0,0.7547,0.7522,0.7465,0.7444,0.7414,0.7373,0.7344,0.7314,0.7275,0.7246,0.7212,0.7185,0.7135,0.7101,0.7069,0.7032,0.7021,0.7002,0.6994,0.7005,0.7007,0.6989,0.6988,0.6977,0.6977,0.6977,0.6977,0,0.7568,0.7529,0.749,0.7434,0.742,0.74,0.7352,0.7329,0.7297,0.7261,0.725,0.7199,0.7158,0.7115,0.7059,0.7037,0.7001,0.6989,0.7016,0.7011,0.7005,0.7005,0.6992,0.6987,0.6979,0.6979,0.6979,0,0.7569,0.7549,0.7491,0.7471,0.7445,0.7412,0.7386,0.7344,0.7319,0.7267,0.725,0.7206,0.7169,0.7105,0.7062,0.7018,0.7005,0.7003,0.6998,0.7009,0.7003,0.7005,0.7002,0.7005,0.7005,0.7005,0.7006,0,0.7574,0.7556,0.7522,0.748,0.7452,0.7417,0.738,0.7365,0.7315,0.7288,0.7246,0.7218,0.716,0.7117,0.7068,0.7038,0.7013,0.7008,0.7003,0.7014,0.7029,0.702,0.702,0.7008,0.7008,0.7007,0.7007,0.7007,0.7584,0.7564,0.7521,0.7483,0.7452,0.7418,0.7394,0.736,0.7325,0.7276,0.7253,0.7211,0.7165,0.7097,0.7068,0.7033,0.7025,0.7019,0.7017,0.7016,0.7018,0.7036,0.7024,0.7023,0.7023,0.7023,0.7023,0,0.7587,0.7557,0.7523,0.7474,0.7444,0.7425,0.7383,0.7359,0.7323,0.7283,0.7248,0.7199,0.7156,0.711,0.7064,0.7045,0.7032,0.7034,0.7035,0.7028,0.7028,0.7036,0.7046,0.7046,0.7046,0.7046,0.7046,0.7046,0.7584,0.755,0.7526,0.7474,0.7444,0.7404,0.7381,0.735,0.7318,0.7266,0.7231,0.7202,0.7158,0.7109,0.7069,0.7056,0.704,0.7046,0.703,0.703,0.7028,0.7027,0.7034,0.7043,0.7043,0.7032,0.7032,0.7032]}]]